This is the latest recevied weather packets stored in our database for station/object KC7WRB. If no packets are shown the sender has not sent any weather packets the latest 10 day(s).
| Time | Temp. | Humidity | Pressure | Rain* | Wind** | Luminosity | Snow |
|---|---|---|---|---|---|---|---|
| 1777679064 | 22.78° C | 10% | 1016.1 hPa | 0 mm | - | 368 W/m² | - |
| 1777678762 | 23.33° C | 10% | 1016.2 hPa | 0 mm | - | 502 W/m² | - |
| 1777678459 | 22.78° C | 10% | 1016 hPa | 0 mm | - | 521 W/m² | - |
| 1777678154 | 22.78° C | 10% | 1016.2 hPa | 0 mm | - | 512 W/m² | - |
| 1777677852 | 22.78° C | 12% | 1016.2 hPa | 0 mm | - | 551 W/m² | - |
| 1777677549 | 23.33° C | 10% | 1016.5 hPa | 0 mm | - | 582 W/m² | - |
| 1777677248 | 23.89° C | 10% | 1016.4 hPa | 0 mm | - | 583 W/m² | - |
| 1777676946 | 23.33° C | 10% | 1016.5 hPa | 0 mm | - | 636 W/m² | - |
| 1777676644 | 23.33° C | 10% | 1016.5 hPa | 0 mm | - | 656 W/m² | - |
| 1777676341 | 22.78° C | 11% | 1016.8 hPa | 0 mm | - | 663 W/m² | - |
| 1777676039 | 22.22° C | 12% | 1016.8 hPa | 0 mm | - | 477 W/m² | - |
| 1777675734 | 22.22° C | 13% | 1016.9 hPa | 0 mm | - | 580 W/m² | - |
| 1777675432 | 22.78° C | 11% | 1016.9 hPa | 0 mm | - | 567 W/m² | - |
| 1777675128 | 22.22° C | 12% | 1017 hPa | 0 mm | - | 610 W/m² | - |
| 1777674825 | 22.22° C | 12% | 1017 hPa | 0 mm | - | 634 W/m² | - |
| 1777674521 | 22.22° C | 13% | 1017.1 hPa | 0 mm | - | 667 W/m² | - |
| 1777674220 | 22.78° C | 12% | 1017.1 hPa | 0 mm | - | 722 W/m² | - |
| 1777673915 | 22.78° C | 11% | 1017.7 hPa | 0 mm | - | 708 W/m² | - |
| 1777673612 | 21.67° C | 13% | 1017.6 hPa | 0 mm | - | 793 W/m² | - |
| 1777673310 | 22.22° C | 13% | 1017.8 hPa | 0 mm | - | 545 W/m² | - |
| 1777673007 | 22.22° C | 13% | 1017.8 hPa | 0 mm | - | 785 W/m² | - |
| 1777672704 | 22.78° C | 12% | 1018 hPa | 0 mm | - | 765 W/m² | - |
| 1777672400 | 21.67° C | 12% | 1017.7 hPa | 0 mm | - | 791 W/m² | - |
| 1777672095 | 22.22° C | 12% | 1018 hPa | 0 mm | - | 789 W/m² | - |
| 1777671790 | 22.22° C | 12% | 1017.9 hPa | 0 mm | - | 810 W/m² | - |
* Rain latest hour (hover to see other rain measurements)
** Current wind speed in m/s (hover to see current wind gust speed)